GW2806 Weather Reports


time (UTC)temp
C
wind
direction
speed
KPH
gust
KPH
rain 1hr
cm
rain 24hr
cm
rain mn
cm
humidity
%
barometer
mb
20260510201543 22 124 3.2 20.9 0.00 0.00 0.00 43 1017.0
20260510200039 22 145 6.4 16.1 0.00 0.00 0.00 41 1016.8
20260510194536 22 37 4.8 19.3 0.00 0.00 0.00 39 1016.6
20260510193037 23 109 8.0 24.1 0.00 0.00 0.00 38 1016.6
20260510191540 24 50 9.7 22.5 0.00 0.00 0.00 39 1016.7
20260510190051 23 27 11.3 22.5 0.00 0.00 0.00 42 1016.6
20260510184541 23 135 6.4 20.9 0.00 0.00 0.00 37 1016.8
20260510183037 23 70 4.8 22.5 0.00 0.00 0.00 39 1016.8
20260510181536 23 77 8.0 25.7 0.00 0.00 0.00 40 1016.6
20260510180035 23 57 8.0 24.1 0.00 0.00 0.00 42 1017.0
20260510174544 23 50 4.8 19.3 0.00 0.00 0.00 45 1017.3
20260510173040 22 137 8.0 19.3 0.00 0.00 0.00 44 1017.5
20260510171542 22 114 9.7 25.7 0.00 0.00 0.00 45 1017.7
20260510170044 21 95 8.0 19.3 0.00 0.00 0.00 46 1017.6
20260510164544 21 110 8.0 20.9 0.00 0.00 0.00 48 1017.8
20260510163046 21 95 8.0 25.7 0.00 0.00 0.00 48 1017.8
20260510161541 21 126 8.0 32.2 0.00 0.00 0.00 46 1017.8
20260510160053 21 85 8.0 20.9 0.00 0.00 0.00 45 1017.7
20260510154536 21 71 9.7 24.1 0.00 0.00 0.00 45 1017.9
20260510153045 21 125 9.7 19.3 0.00 0.00 0.00 47 1017.8
20260510151543 21 103 9.7 24.1 0.00 0.00 0.00 51 1017.8
20260510150047 20 98 11.3 25.7 0.00 0.00 0.00 49 1017.8
20260510144551 20 64 8.0 22.5 0.00 0.00 0.00 52 1017.6
20260510143039 20 83 6.4 22.5 0.00 0.00 0.00 54 1017.6
20260510141544 18 97 4.8 24.1 0.00 0.00 0.00 55 1017.3
20260510140043 18 79 8.0 22.5 0.00 0.00 0.00 57 1017.4
20260510134545 18 113 6.4 19.3 0.00 0.00 0.00 60 1017.4
20260510133038 17 87 6.4 17.7 0.00 0.00 0.00 64 1017.5
20260510131543 16 90 4.8 14.5 0.00 0.00 0.00 68 1017.7
20260510130046 15 41 4.8 16.1 0.00 0.00 0.00 72 1017.5
20260510124545 14 75 3.2 12.9 0.00 0.00 0.00 79 1017.5
20260510123043 13 31 4.8 12.9 0.00 0.00 0.00 88 1017.4
20260510121537 11 43 1.6 11.3 0.00 0.00 0.00 92 1017.1
20260510120036 10 40 0.0 4.8 0.00 0.00 0.00 93 1017.0
20260510114536 8 0 0.0 0.0 0.00 0.00 0.00 93 1017.0
20260510113039 7 0 0.0 0.0 0.00 0.00 0.00 92 1016.8
20260510111603 6 0 0.0 0.0 0.00 0.00 0.00 92 1016.7
20260510110039 6 0 0.0 1.6 0.00 0.00 0.00 91 1016.4
20260510104543 6 0 0.0 0.0 0.00 0.00 0.00 91 1016.1
20260510103045 6 0 0.0 1.6 0.00 0.00 0.00 91 1015.9
20260510101548 6 0 0.0 0.0 0.00 0.00 0.00 91 1015.7
20260510100051 6 0 0.0 0.0 0.00 0.00 0.00 90 1015.7
20260510094540 6 0 0.0 0.0 0.00 0.00 0.00 90 1015.6
20260510093056 6 0 0.0 0.0 0.00 0.00 0.00 90 1015.6
20260510091537 6 0 0.0 0.0 0.00 0.00 0.00 90 1015.5
20260510090049 6 0 0.0 0.0 0.00 0.00 0.00 90 1015.3
20260510084544 6 0 0.0 0.0 0.00 0.00 0.00 89 1015.1
20260510083037 6 0 0.0 1.6 0.00 0.00 0.00 89 1015.1
20260510081538 6 0 0.0 1.6 0.00 0.00 0.00 89 1015.0
20260510080047 6 0 0.0 1.6 0.00 0.00 0.00 89 1014.9
20260510074546 7 0 0.0 1.6 0.00 0.00 0.00 89 1014.6
20260510073042 7 0 0.0 0.0 0.00 0.00 0.00 88 1014.6
20260510071548 7 0 0.0 0.0 0.00 0.00 0.00 88 1014.6
20260510070048 7 0 0.0 3.2 0.00 0.00 0.00 87 1014.7
20260510064558 7 0 0.0 0.0 0.00 0.00 0.00 87 1014.7
20260510063037 7 0 0.0 1.6 0.00 0.00 0.00 87 1014.7
20260510061536 7 0 0.0 1.6 0.00 0.00 0.00 86 1014.5
20260510060041 8 0 0.0 0.0 0.00 0.00 0.00 85 1014.6
20260510054535 8 0 0.0 0.0 0.00 0.00 0.00 84 1014.5
20260510053043 8 0 0.0 0.0 0.00 0.00 0.00 84 1014.5
20260510051536 8 0 0.0 0.0 0.00 0.00 0.00 84 1014.6
20260510050040 9 0 0.0 1.6 0.00 0.00 0.00 83 1014.5
20260510044552 9 0 0.0 0.0 0.00 0.00 0.00 83 1014.5
20260510043036 10 0 0.0 3.2 0.00 0.00 0.00 82 1014.4
20260510041535 10 0 0.0 3.2 0.00 0.00 0.00 81 1014.6
20260510040043 10 0 0.0 0.0 0.00 0.00 0.00 79 1014.4
20260510034541 10 0 0.0 1.6 0.00 0.00 0.00 78 1014.3
20260510033035 11 0 0.0 3.2 0.00 0.00 0.00 77 1014.4
20260510031538 11 0 0.0 3.2 0.00 0.00 0.00 76 1014.1
20260510030045 11 0 0.0 3.2 0.00 0.00 0.00 74 1014.1
20260510024542 12 0 0.0 1.6 0.00 0.00 0.00 72 1014.2
20260510023049 12 59 1.6 3.2 0.00 0.00 0.00 71 1014.2
20260510021536 12 0 0.0 6.4 0.00 0.00 0.00 70 1014.1
20260510020043 13 16 3.2 4.8 0.00 0.00 0.00 69 1013.9
20260510014545 13 7 0.0 3.2 0.00 0.00 0.00 66 1013.7
20260510013038 14 0 0.0 0.0 0.00 0.00 0.00 63 1013.3
20260510011552 15 0 0.0 0.0 0.00 0.00 0.00 62 1013.1
20260510010052 15 0 0.0 3.2 0.00 0.00 0.00 61 1013.0
20260510004549 16 45 0.0 3.2 0.00 0.00 0.00 60 1012.7
20260510003045 16 61 0.0 8.0 0.00 0.00 0.00 58 1012.7
20260510001536 17 12 1.6 6.4 0.00 0.00 0.00 56 1012.7
20260510000044 17 17 0.0 4.8 0.00 0.00 0.00 54 1012.4
20260509234545 18 63 4.8 14.5 0.00 0.00 0.00 53 1012.2
20260509233040 18 56 6.4 12.9 0.00 0.00 0.00 51 1012.0
20260509231539 18 134 4.8 14.5 0.00 0.00 0.00 50 1011.8
20260509230046 18 114 4.8 19.3 0.00 0.00 0.00 50 1011.9
20260509224543 18 79 8.0 17.7 0.00 0.00 0.00 48 1012.0
20260509223037 19 49 6.4 16.1 0.00 0.00 0.00 50 1012.0
20260509221536 19 107 8.0 19.3 0.00 0.00 0.00 49 1012.1
20260509220044 19 63 8.0 22.5 0.00 0.00 0.00 50 1012.1
20260509214543 19 99 6.4 19.3 0.00 0.00 0.00 49 1012.1
20260509213042 19 66 11.3 27.4 0.00 0.00 0.00 50 1012.0
20260509211543 18 86 8.0 19.3 0.00 0.00 0.00 50 1011.8
20260509210036 18 110 9.7 20.9 0.00 0.00 0.00 50 1011.7
20260509204543 18 83 9.7 22.5 0.00 0.00 0.00 50 1011.8
20260509203102 18 56 8.0 17.7 0.00 0.00 0.00 50 1011.6